This demonstration page uses our WeatherBlox Daily Observations layout. Learn more.

Left ArrowRight Arrow

Hourly Observations for November 26, 2016

Temp ( °F °C ) Dew Point ( °F °C ) Humidity (%) Winds ( mph kmh ) Pressure ( in mb ) Visibility ( mi km ) Precip ( " mm )
12:51 am 00:51 Clear 49 9.4 26 -3.3 41 41 SE 8 13 30.18 1022 10 16.0934 N/A
1:51 am 01:51 Clear 49 9.4 27 -2.8 43 43 E 10 17 30.16 1021 10 16.0934 N/A
2:51 am 02:51 Clear 47 8.3 27 -2.8 46 46 SE 7 11 30.17 1022 10 16.0934 N/A
3:51 am 03:51 Clear 46 7.8 27 -2.8 47 47 E 9 15 30.16 1022 10 16.0934 N/A
4:51 am 04:51 Clear 47 8.3 27 -2.8 46 46 SE 12 19 30.16 1021 10 16.0934 N/A
5:51 am 05:51 Clear 48 8.9 27 -2.8 44 44 ESE 16 26 30.16 1022 10 16.0934 N/A
6:51 am 06:51 Clear 47 8.3 29 -1.7 50 50 SE 10 17 30.17 1022 10 16.0934 N/A
7:51 am 07:51 Sunny 49 9.4 29 -1.7 46 46 E 10 17 30.19 1022 10 16.0934 N/A
8:51 am 08:51 Sunny 51 10.6 33 0.6 50 50 ESE 9 15 30.19 1023 10 16.0934 N/A
9:51 am 09:51 Sunny 53 11.7 31 -0.6 43 43 SE 13 20 30.18 1022 10 16.0934 N/A
10:51 am 10:51 Sunny 57 13.9 32 undefined 39 39 E 15 24 30.13 1020 10 16.0934 N/A
11:51 am 11:51 Sunny 60 15.6 36 2.2 41 41 ESE 12 19 30.09 1019 10 16.0934 N/A
12:51 pm 12:51 Sunny 61 16.1 37 2.8 41 41 SSE 8 13 30.04 1017 10 16.0934 N/A
1:51 pm 13:51 Sunny 64 17.8 39 3.9 40 40 SE 9 15 29.98 1015 10 16.0934 N/A
2:51 pm 14:51 Sunny 64 17.8 39 3.9 40 40 E 10 17 29.94 1014 10 16.0934 N/A
3:51 pm 15:51 Sunny 64 17.8 39 3.9 40 40 E 8 13 29.93 1014 10 16.0934 N/A
4:51 pm 16:51 Sunny 64 17.8 40 4.4 41 41 E 13 20 29.92 1013 10 16.0934 N/A
5:51 pm 17:51 Clear 63 17.2 40 4.4 43 43 E 12 19 29.9 1013 10 16.0934 N/A
6:51 pm 18:51 Clear 63 17.2 41 5 45 45 E 12 19 29.9 1012 10 16.0934 N/A
7:51 pm 19:51 Clear 63 17.2 41 5 45 45 E 5 7 29.88 1012 10 16.0934 N/A
8:51 pm 20:51 Clear 61 16.1 41 5 48 48 ESE 9 15 29.88 1012 10 16.0934 N/A
9:51 pm 21:51 Clear 60 15.6 42 5.6 52 52 ESE 10 17 29.85 1011 10 16.0934 N/A
10:51 pm 22:51 Mostly Cloudy 60 15.6 41 5 50 50 ESE 9 15 29.83 1010 10 16.0934 N/A
11:51 pm 23:51 Cloudy 64 17.8 30 -1.1 28 28 W 14 22 29.84 1010 10 16.0934 0.06 1.524

Powered by AerisWeather